Date String (YYYY-MM-DD hh:mm:ss) UTC,Instrument flags,absolute air pressure of the measurement (hPa),sample flow rate (lpm),inlet stack bypass flow (lpm),air temperature of the measurement (°C),ambient temperature measured by the external sensor (°C),aerosol sample conditioner tube jacket temperature (°C),OPC LED temperature (°C),internal box temperature (°C),relative humidity of the measurement (%),span deviation,mass concentration of particles derived from Lorenz-Mie calculation of OPC scattering (μg/m³),mass concentration of particles derived from Lorenz-Mie calculation of OPC scattering (μg/m³),mass concentration of particles derived from Lorenz-Mie calculation of OPC scattering (μg/m³)
DateTimeUTC,F1_M11,P_M11,Q1_M11,Q2_M11,T1_M11,T2_M11,T3_M11,T4_M11,T5_M11,U1_M11,ZSPAN_M11,X2_M11,X0_M11,X1_M11
2024-03-04 12:00:00,SystemResetWarning,0822.1,5.02,000.00,018.3,017.7,000.0,026.9,020.0,14.7,0000.0,0000.91,0006.32,0000.34
2024-03-04 12:01:00,SystemResetWarning,0822.2,4.99,000.00,018.3,017.7,000.0,026.9,020.0,14.8,0000.0,0000.93,0005.67,0000.35
2024-03-04 12:02:00,SystemResetWarning,0822.2,4.98,000.00,018.3,017.7,000.0,026.9,020.0,14.8,0000.0,0000.95,0005.95,0000.36
2024-03-04 12:03:00,SystemResetWarning,0822.2,5.00,000.00,018.3,017.7,000.0,026.9,020.0,14.9,0000.0,0001.01,0006.17,0000.37
2024-03-04 12:04:00,SystemResetWarning,0822.3,5.00,000.00,018.3,017.7,000.0,026.9,020.0,14.9,0000.0,0001.12,0007.10,0000.37
2024-03-04 12:05:00,SystemResetWarning,0822.2,5.00,000.00,018.2,017.6,000.0,026.9,020.0,14.9,0000.0,0001.26,0008.00,0000.38
2024-03-04 12:06:00,SystemResetWarning,0822.2,5.01,000.00,018.2,017.6,000.0,026.9,020.0,15.0,0000.0,0001.34,0008.71,0000.38
2024-03-04 12:07:00,SystemResetWarning,0822.2,4.99,000.00,018.2,017.6,000.0,026.9,020.0,15.0,0000.0,0001.31,0007.94,0000.39
2024-03-04 12:08:00,SystemResetWarning,0822.2,5.00,000.00,018.2,017.5,000.0,026.9,020.0,14.9,0000.0,0001.38,0008.55,0000.40
2024-03-04 12:09:00,SystemResetWarning,0822.2,5.00,000.00,018.2,017.5,000.0,026.9,020.0,14.9,0000.0,0001.45,0009.40,0000.41
2024-03-04 12:10:00,SystemResetWarning,0822.2,5.00,000.00,018.2,017.5,000.0,026.9,020.0,14.8,0000.0,0001.59,0009.67,0000.44
2024-03-04 12:11:00,SystemResetWarning,0822.3,5.00,000.00,018.2,017.5,000.0,026.9,020.0,14.7,0000.0,0001.79,0009.45,0000.47
2024-03-04 12:12:00,SystemResetWarning,0822.4,5.00,000.00,018.2,017.5,000.0,026.9,020.1,14.5,0000.0,0001.98,0010.01,0000.50
2024-03-04 12:13:00,SystemResetWarning,0822.4,5.01,000.00,018.3,018.1,000.0,027.0,020.4,14.4,0000.0,0002.14,0010.86,0000.51
2024-03-04 12:14:00,SystemResetWarning,0822.4,4.98,000.00,018.6,018.8,000.0,027.1,020.8,14.2,0000.0,0002.29,0011.72,0000.53
2024-03-04 12:15:00,SystemResetWarning,0822.4,4.98,000.00,018.6,018.8,000.0,027.0,020.7,14.2,0000.0,0002.33,0012.33,0000.54
2024-03-04 12:16:00,SystemResetWarning,0822.4,5.02,000.00,018.7,018.6,000.0,027.0,020.6,14.1,0000.0,0002.36,0012.39,0000.55
2024-03-04 12:17:00,SystemResetWarning,0822.4,5.00,000.00,018.7,018.5,000.0,027.0,020.6,14.0,0000.0,0002.46,0012.86,0000.58
2024-03-04 12:18:00,SystemResetWarning,0822.4,4.99,000.00,018.6,018.4,000.0,027.0,020.5,14.1,0000.0,0002.60,0013.82,0000.60
2024-03-04 12:19:00,SystemResetWarning,0822.4,4.99,000.00,018.6,018.3,000.0,027.0,020.4,14.1,0000.0,0002.70,0014.13,0000.62
2024-03-04 12:20:00,SystemResetWarning,0822.4,5.00,000.00,018.6,018.2,000.0,027.0,020.4,14.2,0000.0,0002.73,0013.22,0000.63
2024-03-04 12:21:00,SystemResetWarning,0822.4,5.00,000.00,018.6,018.1,000.0,027.0,020.3,14.2,0000.0,0002.67,0013.91,0000.62
2024-03-04 12:22:00,SystemResetWarning,0822.4,5.00,000.00,018.5,018.0,000.0,027.0,020.2,14.3,0000.0,0002.51,0014.40,0000.62
2024-03-04 12:23:00,SystemResetWarning,0822.4,5.00,000.00,018.5,018.0,000.0,027.0,020.2,14.3,0000.0,0002.43,0014.10,0000.60
2024-03-04 12:24:00,SystemResetWarning,0822.4,5.00,000.00,018.5,017.9,000.0,027.0,020.2,14.4,0000.0,0002.34,0013.22,0000.60
2024-03-04 12:25:00,SystemResetWarning,0822.4,5.00,000.00,018.5,017.9,000.0,027.0,020.2,14.4,0000.0,0002.25,0012.90,0000.58
2024-03-04 12:26:00,SystemResetWarning,0822.4,5.00,000.00,018.4,017.9,000.0,027.0,020.2,14.4,0000.0,0002.17,0012.57,0000.59
2024-03-04 12:27:00,SystemResetWarning,0822.6,5.00,000.00,018.4,017.9,000.0,027.0,020.1,14.4,0000.0,0002.02,0012.54,0000.58
2024-03-04 12:28:00,SystemResetWarning,0822.5,4.99,000.00,018.4,017.9,000.0,026.9,020.1,14.4,0000.0,0001.88,0011.40,0000.57
2024-03-04 12:29:00,SystemResetWarning,0822.4,5.00,000.00,018.4,017.8,000.0,026.9,020.1,14.4,0000.0,0001.78,0010.53,0000.56
2024-03-04 12:30:00,SystemResetWarning,0822.4,5.00,000.00,018.4,017.8,000.0,026.9,020.1,14.5,0000.0,0001.65,0009.79,0000.54
2024-03-04 12:31:00,SystemResetWarning,0822.4,5.00,000.00,018.3,017.7,000.0,026.9,020.0,14.6,0000.0,0001.55,0010.12,0000.54
2024-03-04 12:32:00,SystemResetWarning,0822.4,5.00,000.00,018.3,017.7,000.0,026.9,020.0,14.7,0000.0,0001.52,0009.85,0000.53
2024-03-04 12:33:00,SystemResetWarning,0822.4,5.00,000.00,018.3,017.6,000.0,026.9,020.0,14.7,0000.0,0001.51,0008.71,0000.53
2024-03-04 12:34:00,SystemResetWarning,0822.4,5.01,000.00,018.3,017.6,000.0,026.9,020.0,14.7,0000.0,0001.45,0008.62,0000.53
2024-03-04 12:35:00,SystemResetWarning,0822.4,5.00,000.00,018.3,017.5,000.0,026.9,020.0,14.7,0000.0,0001.38,0008.69,0000.53
2024-03-04 12:36:00,SystemResetWarning,0822.4,5.00,000.00,018.3,017.5,000.0,026.9,020.0,14.7,0000.0,0001.28,0008.27,0000.53
2024-03-04 12:37:00,SystemResetWarning,0822.4,5.00,000.00,018.3,017.4,000.0,026.9,020.0,14.7,0000.0,0001.26,0008.33,0000.53
2024-03-04 12:38:00,SystemResetWarning,0822.4,5.00,000.00,018.2,017.4,000.0,026.9,020.0,14.7,0000.0,0001.24,0006.83,0000.53
2024-03-04 12:39:00,SystemResetWarning,0822.4,5.00,000.00,018.2,017.4,000.0,026.9,020.0,14.6,0000.0,0001.21,0006.68,0000.53
2024-03-04 12:40:00,SystemResetWarning,0822.4,5.01,000.00,018.3,017.9,000.0,027.0,020.3,14.5,0000.0,0001.26,0006.59,0000.52
2024-03-04 12:41:00,SystemResetWarning,0822.5,5.01,000.00,018.5,018.7,000.0,027.1,020.8,14.4,0000.0,0001.26,0006.59,0000.52
2024-03-04 12:42:00,SystemResetWarning,0822.5,4.99,000.00,018.7,018.8,000.0,027.1,020.8,14.3,0000.0,0001.26,0005.92,0000.53
2024-03-04 12:43:00,SystemResetWarning,0822.6,4.99,000.00,018.7,018.7,000.0,027.0,020.7,14.2,0000.0,0001.24,0004.83,0000.52
2024-03-04 12:44:00,SystemResetWarning,0822.4,5.01,000.00,018.7,018.6,000.0,027.0,020.6,14.1,0000.0,0001.20,0004.82,0000.51
2024-03-04 12:45:00,SystemResetWarning,0822.7,5.01,000.00,018.7,018.4,000.0,027.0,020.6,14.1,0000.0,0001.22,0004.91,0000.52
2024-03-04 12:46:00,SystemResetWarning,0822.9,5.00,000.00,018.7,018.3,000.0,027.0,020.5,14.0,0000.0,0001.24,0005.06,0000.52
2024-03-04 12:47:00,SystemResetWarning,0822.7,5.00,000.00,018.6,018.2,000.0,027.0,020.4,14.2,0000.0,0001.32,0004.97,0000.52
2024-03-04 12:48:00,SystemResetWarning,0822.5,5.00,000.00,018.6,018.1,000.0,027.0,020.3,14.3,0000.0,0001.38,0005.52,0000.54
2024-03-04 12:49:00,SystemResetWarning,0822.4,5.00,000.00,018.5,018.0,000.0,027.0,020.2,14.3,0000.0,0001.42,0005.89,0000.54
2024-03-04 12:50:00,SystemResetWarning,0822.4,5.00,000.00,018.5,017.9,000.0,027.0,020.2,14.4,0000.0,0001.51,0006.32,0000.55
2024-03-04 12:51:00,SystemResetWarning,0822.9,4.99,000.00,018.5,017.9,000.0,027.0,020.2,14.4,0000.0,0001.51,0006.40,0000.56
2024-03-04 12:52:00,SystemResetWarning,0822.5,5.00,000.00,018.4,017.9,000.0,027.0,020.1,14.3,0000.0,0001.53,0006.30,0000.57
2024-03-04 12:53:00,SystemResetWarning,0822.9,5.00,000.00,018.4,017.8,000.0,027.0,020.1,14.2,0000.0,0001.54,0006.86,0000.56
2024-03-04 12:54:00,SystemResetWarning,0822.9,5.00,000.00,018.4,017.8,000.0,027.0,020.1,14.2,0000.0,0001.59,0007.38,0000.56
2024-03-04 12:55:00,SystemResetWarning,0822.8,5.01,000.00,018.4,017.7,000.0,027.0,020.0,14.2,0000.0,0001.58,0007.32,0000.56
2024-03-04 12:56:00,SystemResetWarning,0823.0,5.00,000.00,018.3,017.7,000.0,027.0,020.0,14.2,0000.0,0001.58,0007.23,0000.57
2024-03-04 12:57:00,SystemResetWarning,0823.0,4.99,000.00,018.3,017.6,000.0,027.0,020.0,14.3,0000.0,0001.56,0006.49,0000.56
2024-03-04 12:58:00,SystemResetWarning,0822.5,4.99,000.00,018.3,017.6,000.0,027.0,020.0,14.5,0000.0,0001.51,0006.37,0000.56
2024-03-04 12:59:00,SystemResetWarning,0822.5,4.99,000.00,018.3,017.6,000.0,027.0,020.0,14.5,0000.0,0001.46,0007.10,0000.56
